{"data":{"norad_id":62500,"epoch":"2026-05-25T05:23:16.026720Z","epoch_age_seconds":55611,"freshness":"FRESH","line1":"1 62500U 25003P   26145.22449105  .00010871  00000+0  40382-3 0  9994","line2":"2 62500  43.0007 216.9968 0000952 261.5757  98.4986 15.27591953 78320","mean_motion":15.27591953,"eccentricity":9.52e-5,"inclination_deg":43.0007,"raan_deg":216.9968,"arg_perigee_deg":261.5757,"mean_anomaly_deg":98.4986,"bstar":0.00040382,"rev_number":7832,"period_min":94.266011101461,"perigee_km":482.36012318196,"apogee_km":483.66648619997,"semimajor_km":6861.150304691,"source":"CELESTRAK","updated_at":"2026-05-25T13:38:19.698896Z"}}